sat.trackr.live / text

‹ back to catalog

STARLINK-4184

NORAD 52852 · 2022-062Y

PAYLOAD ACTIVE UNKNOWN

§ Identity

Operator
Country
US
Launch date
2022-06-17
Launch site
AFETR
Launch vehicle
Mass (kg)
RCS (m²)

Purposes: comms

External: N2YO · Heavens-Above · Gunter

§ Orbital elements

Epoch: 2026-09-20T03:58:38.075808Z

Period
93.85 min
Inclination
53.1599°
Eccentricity
0.0001286
Mean motion
15.34393727 rev/d
Perigee alt
461.8 km
Apogee alt
463.6 km
Semi-major
6,840.9 km
B*
8.9714e-6
RAAN
218.9302°
Arg perigee
88.8871°
Mean anomaly
271.2278°
Rev number
23,544

§ Raw data

STARLINK-41841 52852U 22062Y   26263.16571847 -.00000073  00000+0  89714-5 0  99962 52852  53.1599 218.9302 0001286  88.8871 271.2278 15.34393727235449

JSON: /api/v1/satellites/52852 · /tle

For live sub-satellite position, see the globe view (requires WebGL).

§ Visibility from observer

Set your observer location to see the next 7 days of passes ≥ 10°. The values pass through the URL so the page stays shareable.

No JS? Fill the form by hand. The geolocation button needs JavaScript.